This demonstration page uses our WeatherBlox Daily Observations layout. Learn more.

Left ArrowRight Arrow

53.62937, 11.41316

Hourly Observations for April 1, 2021

Temp ( °F °C ) Dew Point ( °F °C ) Humidity (%) Winds ( mph kmh ) Pressure ( in mb ) Visibility ( mi km ) Precip ( " mm )
7:20 am 07:20 Mostly Sunny 50 10 37 3 62 62 VRB 1 2 30.00 1016 7 11 N/A
7:50 am 07:50 Mostly Sunny 50 10 39 4 67 67 VRB 1 2 30.03 1017 7 11 N/A
8:20 am 08:20 Mostly Sunny 50 10 39 4 67 67 VRB 2 4 30.03 1017 30 48 N/A
8:50 am 08:50 Mostly Sunny 50 10 39 4 67 67 VRB 5 7 30.03 1017 30 48 N/A
9:20 am 09:20 Mostly Sunny 50 10 39 4 67 67 VRB 2 4 30.03 1017 30 48 N/A
9:50 am 09:50 Mostly Sunny 50 10 41 5 71 71 W 3 6 30.03 1017 7 11 N/A
10:20 am 10:20 Partly Cloudy 50 10 43 6 76 76 VRB 7 11 30.03 1017 30 48 N/A
10:50 am 10:50 Mostly Cloudy 50 10 43 6 76 76 N 14 22 30.06 1018 30 48 N/A
11:20 am 11:20 Mostly Cloudy 50 10 43 6 76 76 NNW 13 20 30.06 1018 30 48 N/A
11:50 am 11:50 Mostly Cloudy 48 9 43 6 82 82 NNW 14 22 30.09 1019 30 48 N/A
12:20 pm 12:20 Mostly Cloudy 46 8 43 6 87 87 VRB 7 11 30.09 1019 30 48 N/A
12:50 pm 12:50 Mostly Cloudy 46 8 43 6 87 87 VRB 6 9 30.09 1019 30 48 N/A
1:20 pm 13:20 Mostly Cloudy 46 8 43 6 87 87 VRB 6 9 30.12 1020 30 48 N/A
1:50 pm 13:50 Mostly Cloudy 46 8 41 5 82 82 NW 8 13 30.12 1020 30 48 N/A
2:20 pm 14:20 Mostly Cloudy 46 8 39 4 76 76 VRB 7 11 30.12 1020 30 48 N/A
2:50 pm 14:50 Mostly Cloudy 45 7 39 4 81 81 VRB 7 11 30.12 1020 30 48 N/A
3:20 pm 15:20 Mostly Cloudy 45 7 37 3 76 76 VRB 7 11 30.15 1021 30 48 N/A
3:50 pm 15:50 Mostly Cloudy 46 8 39 4 76 76 VRB 8 13 30.15 1021 30 48 N/A
4:20 pm 16:20 Mostly Cloudy 45 7 39 4 81 81 VRB 6 9 30.15 1021 30 48 N/A
4:50 pm 16:50 Mostly Cloudy 45 7 39 4 81 81 VRB 7 11 30.15 1021 30 48 N/A
5:20 pm 17:20 Mostly Cloudy 45 7 39 4 81 81 VRB 7 11 30.15 1021 30 48 N/A
5:50 pm 17:50 Mostly Cloudy 45 7 39 4 81 81 VRB 6 9 30.15 1021 30 48 N/A
6:20 pm 18:20 Mostly Cloudy 45 7 41 5 87 87 VRB 5 7 30.15 1021 30 48 N/A
6:50 pm 18:50 Mostly Cloudy 41 5 39 4 93 93 N 7 11 30.18 1022 5 8 N/A
7:20 pm 19:20 Mostly Cloudy 41 5 39 4 93 93 VRB 5 7 30.18 1022 6 9 N/A
7:50 pm 19:50 Mostly Cloudy 41 5 37 3 87 87 N 6 9 30.21 1023 6 9 N/A
8:20 pm 20:20 Mostly Cloudy 41 5 37 3 87 87 VRB 5 7 30.21 1023 30 48 N/A
8:50 pm 20:50 Mostly Cloudy 41 5 37 3 87 87 VRB 5 7 30.21 1023 30 48 N/A
9:20 pm 21:20 Mostly Cloudy 41 5 37 3 87 87 VRB 5 7 30.21 1023 30 48 N/A
9:50 pm 21:50 Mostly Cloudy 41 5 37 3 87 87 VRB 3 6 30.24 1024 30 48 N/A

Powered by AerisWeather